{"data":{"norad_id":62998,"epoch":"2026-05-25T04:46:35.501664Z","epoch_age_seconds":48009,"freshness":"FRESH","line1":"1 62998U 25031T   26145.19902201  .00019842  00000+0  72902-3 0  9993","line2":"2 62998  42.9981  71.4824 0001163 209.6908 150.3878 15.27562300 72798","mean_motion":15.275623,"eccentricity":0.0001163,"inclination_deg":42.9981,"raan_deg":71.4824,"arg_perigee_deg":209.6908,"mean_anomaly_deg":150.3878,"bstar":0.00072902,"rev_number":7279,"period_min":94.267840990839,"perigee_km":482.30413461201,"apogee_km":483.90005882591,"semimajor_km":6861.239096719,"source":"CELESTRAK","updated_at":"2026-05-25T13:38:19.833720Z"}}